When you browse on this site, cookies collect data to enhance your experience and personalize the content and advertising you see.
Visit our Privacy Policy to learn more. By continuing to use the site, you agree to this use of cookies and data.

Hourly Weather Aymazimahi

Today, 5 July, Sunday

Time Temperature Precipitation Wind Pressure Humidity
00:00 +16°C° 0 mm 2 mps 650 mmHg 62%
01:00 +15°C° 0 mm 2 mps 650 mmHg 63%
02:00 +15°C° 0 mm 2 mps 650 mmHg 63%
03:00 +15°C° 0 mm 2 mps 650 mmHg 66%
04:00 +16°C° 0 mm 2 mps 650 mmHg 64%
05:00 +17°C° 0 mm 2 mps 651 mmHg 62%
06:00 +19°C° 0 mm 2 mps 651 mmHg 60%
07:00 +20°C° 0 mm 3 mps 652 mmHg 53%
08:00 +22°C° 0 mm 4 mps 652 mmHg 46%
09:00 +25°C° 0 mm 4 mps 653 mmHg 38%
10:00 +26°C° 0 mm 5 mps 652 mmHg 36%
11:00 +27°C° 0 mm 6 mps 652 mmHg 35%
12:00 +27°C° 0 mm 6 mps 652 mmHg 33%
13:00 +27°C° 0 mm 6 mps 652 mmHg 33%
14:00 +27°C° 0 mm 6 mps 652 mmHg 32%
15:00 +27°C° 0 mm 7 mps 652 mmHg 32%
16:00 +26°C° 0 mm 6 mps 651 mmHg 35%
17:00 +25°C° 0 mm 5 mps 651 mmHg 37%
18:00 +23°C° 0 mm 5 mps 651 mmHg 39%
19:00 +21°C° 0 mm 4 mps 650 mmHg 41%
20:00 +19°C° 0 mm 3 mps 650 mmHg 43%
21:00 +18°C° 0 mm 3 mps 649 mmHg 44%
22:00 +17°C° 0 mm 2 mps 649 mmHg 46%
23:00 +17°C° 0 mm 2 mps 649 mmHg 47%

Tomorrow, 6 July, Monday

Time Temperature Precipitation Wind Pressure Humidity
00:00 +17°C° 0 mm 2 mps 649 mmHg 48%
01:00 +16°C° 0 mm 2 mps 649 mmHg 50%
02:00 +16°C° 0 mm 2 mps 649 mmHg 52%
03:00 +16°C° 0 mm 2 mps 649 mmHg 54%
04:00 +17°C° 0 mm 2 mps 649 mmHg 53%
05:00 +18°C° 0 mm 2 mps 649 mmHg 51%
06:00 +19°C° 0 mm 2 mps 650 mmHg 50%
07:00 +21°C° 0 mm 3 mps 650 mmHg 43%
08:00 +25°C° 0 mm 4 mps 651 mmHg 36%
09:00 +27°C° 0 mm 6 mps 652 mmHg 29%
10:00 +28°C° 0 mm 6 mps 652 mmHg 28%
11:00 +29°C° 0 mm 7 mps 652 mmHg 28%
12:00 +29°C° 0 mm 7 mps 652 mmHg 27%
13:00 +29°C° 0 mm 7 mps 651 mmHg 28%
14:00 +29°C° 0 mm 7 mps 651 mmHg 29%
15:00 +28°C° 0 mm 7 mps 651 mmHg 30%
16:00 +27°C° 0 mm 6 mps 651 mmHg 33%
17:00 +26°C° 0 mm 5 mps 650 mmHg 35%
18:00 +25°C° 0 mm 5 mps 650 mmHg 38%
19:00 +22°C° 0 mm 4 mps 649 mmHg 41%
20:00 +21°C° 0 mm 3 mps 649 mmHg 43%
21:00 +19°C° 0 mm 3 mps 649 mmHg 46%
22:00 +18°C° 0 mm 3 mps 649 mmHg 47%
23:00 +18°C° 0 mm 2 mps 648 mmHg 47%

Day after tomorrow, 7 July, Tuesday

Time Temperature Precipitation Wind Pressure Humidity
00:00 +17°C° 0 mm 2 mps 648 mmHg 48%
01:00 +17°C° 0 mm 2 mps 648 mmHg 46%
02:00 +17°C° 0 mm 2 mps 648 mmHg 44%
03:00 +17°C° 0 mm 2 mps 648 mmHg 43%
04:00 +18°C° 0 mm 2 mps 648 mmHg 43%
05:00 +19°C° 0 mm 2 mps 648 mmHg 44%
06:00 +20°C° 0 mm 2 mps 649 mmHg 45%
07:00 +22°C° 0 mm 3 mps 649 mmHg 39%
08:00 +26°C° 0 mm 4 mps 650 mmHg 34%
09:00 +28°C° 0 mm 4 mps 651 mmHg 29%
10:00 +29°C° 0 mm 5 mps 651 mmHg 28%
11:00 +29°C° 0 mm 6 mps 651 mmHg 27%
12:00 +30°C° 0 mm 6 mps 651 mmHg 26%
13:00 +30°C° 0 mm 7 mps 651 mmHg 27%
14:00 +30°C° 0 mm 7 mps 650 mmHg 27%
15:00 +29°C° 0 mm 8 mps 650 mmHg 27%
16:00 +28°C° 0 mm 7 mps 649 mmHg 30%
17:00 +27°C° 0 mm 6 mps 649 mmHg 33%
18:00 +26°C° 0 mm 5 mps 649 mmHg 36%
19:00 +23°C° 0 mm 4 mps 648 mmHg 39%
20:00 +21°C° 0 mm 3 mps 648 mmHg 41%
21:00 +19°C° 0 mm 2 mps 648 mmHg 43%
22:00 +19°C° 0 mm 2 mps 648 mmHg 43%
23:00 +19°C° 0 mm 2 mps 648 mmHg 43%

8 July, Wednesday

Time Temperature Precipitation Wind Pressure Humidity
00:00 +19°C° 0 mm 2 mps 648 mmHg 42%
01:00 +19°C° 0 mm 2 mps 648 mmHg 41%
02:00 +18°C° 0 mm 2 mps 648 mmHg 40%
03:00 +18°C° 0 mm 2 mps 648 mmHg 39%
04:00 +19°C° 0 mm 2 mps 648 mmHg 40%
05:00 +20°C° 0 mm 2 mps 648 mmHg 41%
06:00 +21°C° 0 mm 2 mps 649 mmHg 42%
07:00 +24°C° 0 mm 2 mps 649 mmHg 37%
08:00 +26°C° 0 mm 2 mps 650 mmHg 33%
09:00 +29°C° 0 mm 2 mps 650 mmHg 29%
10:00 +29°C° 0 mm 3 mps 650 mmHg 28%
11:00 +30°C° 0 mm 4 mps 650 mmHg 27%
12:00 +32°C° 0 mm 4 mps 651 mmHg 26%
13:00 +32°C° 0 mm 5 mps 650 mmHg 27%
14:00 +32°C° 0 mm 5 mps 650 mmHg 28%
15:00 +30°C° 0 mm 5 mps 649 mmHg 29%
16:00 +29°C° 0.1 mm 4 mps 649 mmHg 34%
17:00 +28°C° 0.1 mm 3 mps 649 mmHg 38%
18:00 +27°C° 0.1 mm 2 mps 649 mmHg 43%
19:00 +25°C° 0.2 mm 2 mps 648 mmHg 48%
20:00 +21°C° 0.2 mm 2 mps 648 mmHg 52%
21:00 +19°C° 0.2 mm 2 mps 648 mmHg 57%
22:00 +19°C° 0.1 mm 2 mps 648 mmHg 60%
23:00 +19°C° 0.1 mm 2 mps 648 mmHg 62%

9 July, Thursday

Time Temperature Precipitation Wind Pressure Humidity
00:00 +18°C° 0.1 mm 2 mps 647 mmHg 65%
01:00 +18°C° 0 mm 2 mps 647 mmHg 63%
02:00 +18°C° 0 mm 2 mps 647 mmHg 62%
03:00 +18°C° 0 mm 2 mps 647 mmHg 61%
04:00 +19°C° 0 mm 2 mps 647 mmHg 59%
05:00 +20°C° 0 mm 2 mps 648 mmHg 57%
06:00 +21°C° 0 mm 2 mps 648 mmHg 55%
07:00 +24°C° 0 mm 2 mps 649 mmHg 49%
08:00 +26°C° 0 mm 2 mps 649 mmHg 43%
09:00 +28°C° 0 mm 2 mps 650 mmHg 37%
10:00 +28°C° 0 mm 3 mps 650 mmHg 36%
11:00 +29°C° 0 mm 3 mps 650 mmHg 34%
12:00 +30°C° 0 mm 3 mps 650 mmHg 32%
13:00 +29°C° 0.1 mm 3 mps 650 mmHg 34%
14:00 +29°C° 0.1 mm 3 mps 650 mmHg 35%
15:00 +28°C° 0.1 mm 2 mps 649 mmHg 36%
16:00 +27°C° 0.1 mm 2 mps 649 mmHg 41%
17:00 +26°C° 0.1 mm 2 mps 649 mmHg 46%
18:00 +25°C° 0.1 mm 1 mps 649 mmHg 51%
19:00 +24°C° 0.1 mm 2 mps 649 mmHg 55%
20:00 +21°C° 0.1 mm 2 mps 648 mmHg 59%
21:00 +20°C° 0.1 mm 2 mps 648 mmHg 63%
22:00 +19°C° 0 mm 2 mps 648 mmHg 63%
23:00 +19°C° 0 mm 2 mps 648 mmHg 64%

10 July, Friday

Time Temperature Precipitation Wind Pressure Humidity
00:00 +19°C° 0 mm 2 mps 648 mmHg 64%
01:00 +19°C° 0 mm 2 mps 648 mmHg 63%
02:00 +18°C° 0 mm 2 mps 648 mmHg 63%
03:00 +18°C° 0 mm 2 mps 648 mmHg 62%
04:00 +19°C° 0 mm 2 mps 649 mmHg 61%
05:00 +20°C° 0 mm 2 mps 649 mmHg 59%
06:00 +21°C° 0 mm 2 mps 650 mmHg 57%
07:00 +24°C° 0 mm 2 mps 650 mmHg 53%
08:00 +25°C° 0 mm 2 mps 651 mmHg 48%
09:00 +27°C° 0 mm 2 mps 651 mmHg 44%
10:00 +27°C° 0.1 mm 2 mps 651 mmHg 46%
11:00 +27°C° 0.1 mm 2 mps 651 mmHg 47%
12:00 +27°C° 0.1 mm 3 mps 651 mmHg 49%
13:00 +25°C° 1.4 mm 2 mps 651 mmHg 55%
14:00 +24°C° 1.4 mm 2 mps 650 mmHg 61%
15:00 +23°C° 1.4 mm 2 mps 650 mmHg 68%
16:00 +21°C° 0.9 mm 2 mps 649 mmHg 70%
17:00 +21°C° 0.9 mm 2 mps 649 mmHg 71%
18:00 +22°C° 0.9 mm 1 mps 649 mmHg 73%
19:00 +21°C° 0 mm 1 mps 649 mmHg 72%
20:00 +21°C° 0 mm 1 mps 650 mmHg 71%
21:00 +19°C° 0 mm 2 mps 650 mmHg 70%
22:00 +19°C° 0 mm 2 mps 650 mmHg 70%
23:00 +19°C° 0 mm 2 mps 650 mmHg 69%
Show more